Location: Brunembert
(50.7122°N, 1.8935°E)
Time: 04:44:01
(UTC+00:00)

COSMOS 2455 - Pass Details

Date: 22 April 2021
Orbit: 902 x 907 km, 67.1° (Epoch: 06 May)

Event Time Altitude Azimuth Distance (km) Brightness Sun altitude
Rises 21:25:28 0° 212° (SSW) 3,520 5.7 -19.3°
Reaches altitude 10° 21:27:58 10° 212° (SSW) 2,583 5.0 -19.5°
Maximum altitude 21:33:59 85° 125° (SE) 917 2.7 -20.1°
Drops below altitude 10° 21:40:02 10° 37° (NE) 2,601 5.4 -20.6°
Sets 21:42:33 0° 38° (NE) 3,546 6.2 -20.9°
